Location: Colle San Luigi
(43.5500°N, 13.4167°E)
Time: 11:43:28
(UTC+00:00)

Cosmos 1697 Rocket - Pass Details

Date: 09 April 2020
Orbit: 831 x 845 km, 71.0° (Epoch: 03 June)

Event Time Altitude Azimuth Distance (km) Brightness Sun altitude
Rises 19:23:37 0° 344° (NNW) 3,411 6.6 -17.8°
Reaches altitude 10° 19:26:40 10° 359° (N) 2,473 5.5 -18.3°
Maximum altitude 19:30:58 22° 49° (NE) 1,782 4.2 -18.9°
Enters shadow 19:32:33 19° 72° (ENE) 1,888 4.2 -19.2°
